Weather in Striguny

Russia / Belgorod Oblast     50°37′20″N   36°06′01″E
temp.,
°C
wind,
m/s
gust,
m/s
humid.,
%
clouds,
%
prec.,
mm/h
press.,
hPa
HPBL,
m
11 may, tue
tue1100:00+9n91973100 0.3 1018787
03:00+9nne81677100 0.3 1017619
06:00+10nne71781100 0.0 1016546
09:00+13nne81578100 0.0 1016855
12:00+11ene71287100 0.2 1017957
15:00+13ene811575 0.2 10181503
18:00+12ene711665 0.0 10191534
21:00+9ene713785 0.1 1019924
12 may, wed
wed1200:00+8ene81580100 0.1 10191540
03:00+8e91582100 0.3 10191289
06:00+8e61284100 0.0 10191057
09:00+9e91480100 0.1 10191295
12:00+9e8128698 1.1 10181080
15:00+9e4990100 2.9 1016804
18:00+10ese478499 0.8 1015554
21:00+8e2594100 2.4 1014148
13 may, thu
thu1300:00+7se5119711 1.2 1014290
03:00+7se41098100 1.2 1015300
06:00+8se479490 0.0 1015315
09:00+12s46755 0.0 1015749
12:00+15s465831 0.0 10151370
15:00+17ssw475325 0.0 10141800
18:00+16se34698 0.0 1014330
21:00+12e3377100 0.0 101532
14 may, fri
fri1400:00+12ene4887100 0.0 1014144
03:00+12e5129321 0.6 1013223
06:00+13ese51293100 0.7 1012272
09:00+18se6118339 1.8 1011617
12:00+22sse6868100 0.0 10111204
15:00+24sse6861100 0.0 10101370
18:00+23s3672100 0.0 1010269
21:00+17sse368713 2.6 101078
15 may, sat
sat1500:00+15sw34861 2.9 101057
03:00+14sw22830 3.2 101013
06:00+13ssw34887 0.0 101174
09:00+18ssw457565 0.0 1011449
12:00+21ssw68570 0.0 10111468
15:00+22ssw7853100 0.0 10121920
18:00+19wsw47691 0.6 1012678
21:00+15w338912 0.6 101333